| time (UTC) | temp F | wind direction | speed MPH | gust MPH | rain 1hr in | rain 24hr in | rain mn in | humidity % | barometer mb |
| 20260505075516 | 50 | 321 | 1.0 | 2.0 | 0.00 | 0.00 | 0.00 | 91 | |
| 20260505075016 | 50 | 322 | 1.0 | 2.0 | 0.00 | 0.00 | 0.00 | 91 | |
| 20260505074516 | 50 | 302 | 0.0 | 1.0 | 0.00 | 0.00 | 0.00 | 91 | |
| 20260505074016 | 50 | 0.0 | 0.0 | 0.00 | 0.00 | 0.00 | 90 | ||
| 20260505073536 | 50 | 289 | 1.0 | 2.0 | 0.00 | 0.00 | 0.00 | 90 | |
| 20260505073016 | 51 | 328 | 1.0 | 2.0 | 0.00 | 0.00 | 0.00 | 90 | |
| 20260505072516 | 51 | 9 | 0.0 | 1.0 | 0.00 | 0.00 | 0.00 | 89 | |
| 20260505072057 | 51 | 0.0 | 0.0 | 0.00 | 0.00 | 0.00 | 89 | ||
| 20260505071517 | 51 | 317 | 2.0 | 2.0 | 0.00 | 0.00 | 0.00 | 89 | |
| 20260505071017 | 51 | 320 | 0.0 | 1.0 | 0.00 | 0.00 | 0.00 | 89 | |
| 20260505070517 | 51 | 318 | 0.0 | 1.0 | 0.00 | 0.00 | 0.00 | 89 | |
| 20260505070017 | 51 | 300 | 0.0 | 1.0 | 0.00 | 0.00 | 0.00 | 88 | |
| 20260505065517 | 51 | 0.0 | 0.0 | 0.00 | 0.00 | 0.00 | 88 | ||
| 20260505065038 | 51 | 312 | 0.0 | 2.0 | 0.00 | 0.00 | 0.00 | 88 | |
| 20260505064518 | 51 | 295 | 2.0 | 2.0 | 0.00 | 0.00 | 0.00 | 89 | |
| 20260505064017 | 51 | 0.0 | 0.0 | 0.00 | 0.00 | 0.00 | 89 | ||
| 20260505063537 | 51 | 307 | 0.0 | 1.0 | 0.00 | 0.00 | 0.00 | 89 | |
| 20260505063058 | 52 | 319 | 1.0 | 2.0 | 0.00 | 0.00 | 0.00 | 88 | |
| 20260505062517 | 52 | 310 | 0.0 | 1.0 | 0.00 | 0.00 | 0.00 | 87 | |
| 20260505062018 | 52 | 299 | 0.0 | 2.0 | 0.00 | 0.00 | 0.00 | 86 | |
| 20260505061538 | 52 | 358 | 0.0 | 1.0 | 0.00 | 0.00 | 0.00 | 86 | |
| 20260505061018 | 52 | 356 | 0.0 | 1.0 | 0.00 | 0.00 | 0.00 | 87 | |
| 20260505060538 | 52 | 260 | 0.0 | 2.0 | 0.00 | 0.00 | 0.00 | 85 | |
| 20260505060015 | 52 | 307 | 1.0 | 2.0 | 0.00 | 0.00 | 0.00 | 86 | |
| 20260505055518 | 52 | 319 | 0.0 | 0.0 | 0.00 | 0.00 | 0.00 | 85 | |
| 20260505055018 | 52 | 0.0 | 0.0 | 0.00 | 0.00 | 0.00 | 85 | ||
| 20260505054515 | 53 | 0.0 | 0.0 | 0.00 | 0.00 | 0.00 | 86 | ||
| 20260505054015 | 53 | 321 | 1.0 | 2.0 | 0.00 | 0.00 | 0.00 | 85 | |
| 20260505053515 | 53 | 331 | 0.0 | 1.0 | 0.00 | 0.00 | 0.00 | 85 | |
| 20260505053015 | 53 | 285 | 0.0 | 0.0 | 0.00 | 0.00 | 0.00 | 85 | |
| 20260505052516 | 53 | 0.0 | 0.0 | 0.00 | 0.00 | 0.00 | 83 | ||
| 20260505052016 | 53 | 0.0 | 0.0 | 0.00 | 0.00 | 0.00 | 82 | ||
| 20260505051516 | 53 | 311 | 0.0 | 1.0 | 0.00 | 0.00 | 0.00 | 83 | |
| 20260505051017 | 53 | 0.0 | 0.0 | 0.00 | 0.00 | 0.00 | 83 | ||
| 20260505050517 | 54 | 0.0 | 0.0 | 0.00 | 0.00 | 0.00 | 83 | ||
| 20260505041518 | 55 | 293 | 0.0 | 1.0 | 0.00 | 0.00 | 0.00 | 79 | |
| 20260505041058 | 56 | 307 | 0.0 | 2.0 | 0.00 | 0.00 | 0.00 | 78 | |
| 20260505040518 | 56 | 301 | 0.0 | 0.0 | 0.00 | 0.00 | 0.00 | 77 | |
| 20260505040038 | 56 | 308 | 0.0 | 1.0 | 0.00 | 0.00 | 0.00 | 77 | |
| 20260505035538 | 56 | 318 | 0.0 | 1.0 | 0.00 | 0.00 | 0.00 | 76 | |
| 20260505035018 | 56 | 0.0 | 0.0 | 0.00 | 0.00 | 0.00 | 75 | ||
| 20260505034518 | 57 | 0.0 | 0.0 | 0.00 | 0.00 | 0.00 | 76 | ||
| 20260505034038 | 57 | 0.0 | 0.0 | 0.00 | 0.00 | 0.00 | 75 | ||
| 20260505033535 | 57 | 312 | 1.0 | 2.0 | 0.00 | 0.00 | 0.00 | 73 | |
| 20260505033015 | 57 | 306 | 0.0 | 0.0 | 0.00 | 0.00 | 0.00 | 73 | |
| 20260505032515 | 57 | 326 | 0.0 | 1.0 | 0.00 | 0.00 | 0.00 | 72 | |
| 20260505032015 | 58 | 0.0 | 0.0 | 0.00 | 0.00 | 0.00 | 73 | ||
| 20260505031515 | 58 | 313 | 1.0 | 2.0 | 0.00 | 0.00 | 0.00 | 73 | |
| 20260505031016 | 58 | 27 | 0.0 | 1.0 | 0.00 | 0.00 | 0.00 | 72 | |
| 20260505030536 | 58 | 323 | 1.0 | 1.0 | 0.00 | 0.00 | 0.00 | 73 | |
| 20260505030016 | 58 | 0.0 | 0.0 | 0.00 | 0.00 | 0.00 | 71 | ||
| 20260505025516 | 59 | 322 | 0.0 | 1.0 | 0.00 | 0.00 | 0.00 | 71 | |
| 20260505025016 | 59 | 325 | 1.0 | 2.0 | 0.00 | 0.00 | 0.00 | 69 | |
| 20260505024556 | 59 | 0.0 | 0.0 | 0.00 | 0.00 | 0.00 | 68 | ||
| 20260505024016 | 59 | 0.0 | 0.0 | 0.00 | 0.00 | 0.00 | 69 | ||
| 20260505023516 | 60 | 0.0 | 0.0 | 0.00 | 0.00 | 0.00 | 69 | ||
| 20260505023017 | 60 | 328 | 0.0 | 1.0 | 0.00 | 0.00 | 0.00 | 66 | |
| 20260505022516 | 60 | 320 | 0.0 | 2.0 | 0.00 | 0.00 | 0.00 | 66 | |
| 20260505022017 | 61 | 0.0 | 0.0 | 0.00 | 0.00 | 0.00 | 65 | ||
| 20260505021537 | 61 | 0.0 | 0.0 | 0.00 | 0.00 | 0.00 | 64 | ||
| 20260505021017 | 61 | 307 | 0.0 | 1.0 | 0.00 | 0.00 | 0.00 | 64 | |
| 20260505020517 | 61 | 0.0 | 0.0 | 0.00 | 0.00 | 0.00 | 64 | ||
| 20260505020017 | 62 | 302 | 1.0 | 2.0 | 0.00 | 0.00 | 0.00 | 63 | |
| 20260505015517 | 62 | 0.0 | 0.0 | 0.00 | 0.00 | 0.00 | 61 | ||
| 20260505015037 | 62 | 0.0 | 0.0 | 0.00 | 0.00 | 0.00 | 62 | ||
| 20260505014517 | 63 | 305 | 0.0 | 1.0 | 0.00 | 0.00 | 0.00 | 62 | |
| 20260505014017 | 63 | 0.0 | 0.0 | 0.00 | 0.00 | 0.00 | 60 | ||
| 20260505013517 | 63 | 155 | 0.0 | 0.0 | 0.00 | 0.00 | 0.00 | 61 | |
| 20260505013017 | 64 | 0.0 | 0.0 | 0.00 | 0.00 | 0.00 | 60 | ||
| 20260505012517 | 64 | 318 | 0.0 | 1.0 | 0.00 | 0.00 | 0.00 | 58 | |
| 20260505012017 | 65 | 325 | 0.0 | 1.0 | 0.00 | 0.00 | 0.00 | 57 | |
| 20260505011538 | 65 | 324 | 1.0 | 1.0 | 0.00 | 0.00 | 0.00 | 56 | |
| 20260505011017 | 66 | 0.0 | 0.0 | 0.00 | 0.00 | 0.00 | 55 | ||
| 20260505010518 | 66 | 50 | 0.0 | 0.0 | 0.00 | 0.00 | 0.00 | 55 | |
| 20260505010018 | 66 | 0.0 | 0.0 | 0.00 | 0.00 | 0.00 | 55 | ||
| 20260505005518 | 67 | 0.0 | 0.0 | 0.00 | 0.00 | 0.00 | 54 | ||
| 20260505005038 | 67 | 0.0 | 0.0 | 0.00 | 0.00 | 0.00 | 54 | ||
| 20260505004518 | 68 | 0.0 | 0.0 | 0.00 | 0.00 | 0.00 | 53 | ||
| 20260505004038 | 69 | 0.0 | 0.0 | 0.00 | 0.00 | 0.00 | 52 | ||
| 20260505003518 | 69 | 0.0 | 0.0 | 0.00 | 0.00 | 0.00 | 52 | ||
| 20260505003018 | 70 | 0.0 | 0.0 | 0.00 | 0.00 | 0.00 | 51 | ||
| 20260505002518 | 71 | 2 | 0.0 | 1.0 | 0.00 | 0.00 | 0.00 | 49 | |
| 20260505002018 | 71 | 0.0 | 0.0 | 0.00 | 0.00 | 0.00 | 48 | ||
| 20260505001519 | 72 | 0.0 | 0.0 | 0.00 | 0.00 | 0.00 | 47 | ||
| 20260505001019 | 72 | 347 | 0.0 | 2.0 | 0.00 | 0.00 | 0.00 | 47 | |
| 20260505000519 | 73 | 0.0 | 0.0 | 0.00 | 0.00 | 0.00 | 45 | ||
| 20260505000016 | 74 | 0.0 | 0.0 | 0.00 | 0.00 | 0.00 | 45 | ||
| 20260504235516 | 74 | 0.0 | 0.0 | 0.00 | 0.00 | 0.00 | 44 | ||
| 20260504235056 | 75 | 87 | 1.0 | 2.0 | 0.00 | 0.00 | 0.00 | 44 | |
| 20260504234516 | 76 | 324 | 0.0 | 1.0 | 0.00 | 0.00 | 0.00 | 42 | |
| 20260504234016 | 76 | 27 | 0.0 | 1.0 | 0.00 | 0.00 | 0.00 | 41 | |
| 20260504233517 | 77 | 335 | 0.0 | 1.0 | 0.00 | 0.00 | 0.00 | 40 | |
| 20260504233017 | 77 | 323 | 2.0 | 4.0 | 0.00 | 0.00 | 0.00 | 39 | |
| 20260504232516 | 77 | 310 | 2.0 | 4.0 | 0.00 | 0.00 | 0.00 | 38 | |
| 20260504232017 | 77 | 314 | 1.0 | 3.0 | 0.00 | 0.00 | 0.00 | 38 | |
| 20260504231557 | 77 | 293 | 3.0 | 4.0 | 0.00 | 0.00 | 0.00 | 38 | |
| 20260504231017 | 78 | 307 | 4.0 | 7.0 | 0.00 | 0.00 | 0.00 | 37 | |
| 20260504230516 | 79 | 294 | 3.0 | 6.0 | 0.00 | 0.00 | 0.00 | 37 | |
| 20260504230017 | 79 | 316 | 3.0 | 5.0 | 0.00 | 0.00 | 0.00 | 37 | |
| 20260504225517 | 79 | 275 | 2.0 | 4.0 | 0.00 | 0.00 | 0.00 | 36 | |
| 20260504225037 | 79 | 273 | 3.0 | 5.0 | 0.00 | 0.00 | 0.00 | 36 | |
| 20260504224517 | 80 | 307 | 4.0 | 8.0 | 0.00 | 0.00 | 0.00 | 36 | |
| 20260504224017 | 79 | 312 | 3.0 | 5.0 | 0.00 | 0.00 | 0.00 | 36 | |
| 20260504223518 | 79 | 306 | 2.0 | 3.0 | 0.00 | 0.00 | 0.00 | 36 | |
| 20260504223058 | 79 | 295 | 4.0 | 6.0 | 0.00 | 0.00 | 0.00 | 37 | |
| 20260504222517 | 79 | 327 | 2.0 | 4.0 | 0.00 | 0.00 | 0.00 | 36 | |
| 20260504222018 | 79 | 339 | 2.0 | 4.0 | 0.00 | 0.00 | 0.00 | 36 | |
| 20260504221518 | 80 | 320 | 2.0 | 3.0 | 0.00 | 0.00 | 0.00 | 36 | |
| 20260504221018 | 80 | 289 | 2.0 | 4.0 | 0.00 | 0.00 | 0.00 | 35 | |
| 20260504220518 | 80 | 290 | 3.0 | 6.0 | 0.00 | 0.00 | 0.00 | 35 | |
| 20260504220038 | 80 | 303 | 3.0 | 6.0 | 0.00 | 0.00 | 0.00 | 36 | |
| 20260504215518 | 80 | 305 | 3.0 | 5.0 | 0.00 | 0.00 | 0.00 | 35 | |
| 20260504215018 | 80 | 318 | 4.0 | 6.0 | 0.00 | 0.00 | 0.00 | 35 | |
| 20260504214518 | 80 | 308 | 7.0 | 11.0 | 0.00 | 0.00 | 0.00 | 35 | |
| 20260504214018 | 81 | 328 | 2.0 | 6.0 | 0.00 | 0.00 | 0.00 | 35 | |
| 20260504213519 | 80 | 316 | 2.0 | 3.0 | 0.00 | 0.00 | 0.00 | 36 | |
| 20260504213018 | 80 | 313 | 5.0 | 8.0 | 0.00 | 0.00 | 0.00 | 36 | |
| 20260504212519 | 80 | 31 | 1.0 | 3.0 | 0.00 | 0.00 | 0.00 | 35 | |
| 20260504212019 | 80 | 312 | 3.0 | 6.0 | 0.00 | 0.00 | 0.00 | 35 | |
| 20260504211519 | 80 | 306 | 3.0 | 6.0 | 0.00 | 0.00 | 0.00 | 35 | |
| 20260504211019 | 80 | 300 | 2.0 | 3.0 | 0.00 | 0.00 | 0.00 | 35 | |
| 20260504210519 | 81 | 147 | 4.0 | 6.0 | 0.00 | 0.00 | 0.00 | 34 | |
| 20260504210039 | 81 | 168 | 2.0 | 5.0 | 0.00 | 0.00 | 0.00 | 33 | |
| 20260504205519 | 82 | 55 | 2.0 | 5.0 | 0.00 | 0.00 | 0.00 | 35 | |
| 20260504205019 | 82 | 355 | 2.0 | 4.0 | 0.00 | 0.00 | 0.00 | 35 | |
| 20260504204519 | 81 | 144 | 0.0 | 1.0 | 0.00 | 0.00 | 0.00 | 36 | |
| 20260504204020 | 81 | 305 | 4.0 | 5.0 | 0.00 | 0.00 | 0.00 | 34 | |
| 20260504203520 | 81 | 257 | 3.0 | 5.0 | 0.00 | 0.00 | 0.00 | 36 | |
| 20260504203019 | 80 | 303 | 4.0 | 6.0 | 0.00 | 0.00 | 0.00 | 36 | |
| 20260504202520 | 80 | 311 | 2.0 | 3.0 | 0.00 | 0.00 | 0.00 | 36 | |
| 20260504202020 | 80 | 311 | 3.0 | 6.0 | 0.00 | 0.00 | 0.00 | 35 | |
| 20260504201519 | 79 | 281 | 4.0 | 7.0 | 0.00 | 0.00 | 0.00 | 36 | |
| 20260504201020 | 80 | 307 | 3.0 | 5.0 | 0.00 | 0.00 | 0.00 | 33 | |
| 20260504200517 | 79 | 203 | 3.0 | 6.0 | 0.00 | 0.00 | 0.00 | 36 | |
| 20260504200017 | 80 | 111 | 3.0 | 5.0 | 0.00 | 0.00 | 0.00 | 34 | |
| 20260504195517 | 81 | 321 | 2.0 | 7.0 | 0.00 | 0.00 | 0.00 | 34 | |
| 20260504195018 | 81 | 331 | 2.0 | 5.0 | 0.00 | 0.00 | 0.00 | 35 | |
| 20260504194517 | 80 | 321 | 2.0 | 4.0 | 0.00 | 0.00 | 0.00 | 35 | |
| 20260504194017 | 80 | 289 | 4.0 | 8.0 | 0.00 | 0.00 | 0.00 | 36 | |
| 20260504193518 | 79 | 116 | 3.0 | 5.0 | 0.00 | 0.00 | 0.00 | 37 | |
| 20260504193038 | 78 | 302 | 4.0 | 7.0 | 0.00 | 0.00 | 0.00 | 39 | |
| 20260504192518 | 79 | 102 | 1.0 | 4.0 | 0.00 | 0.00 | 0.00 | 39 | |
| 20260504192018 | 80 | 130 | 2.0 | 4.0 | 0.00 | 0.00 | 0.00 | 39 | |
| 20260504191518 | 80 | 107 | 1.0 | 3.0 | 0.00 | 0.00 | 0.00 | 38 | |
| 20260504191018 | 80 | 315 | 3.0 | 6.0 | 0.00 | 0.00 | 0.00 | 38 | |
| 20260504190515 | 78 | 185 | 1.0 | 3.0 | 0.00 | 0.00 | 0.00 | 39 | |
| 20260504190038 | 78 | 325 | 5.0 | 7.0 | 0.00 | 0.00 | 0.00 | 39 | |
| 20260504185518 | 79 | 295 | 2.0 | 3.0 | 0.00 | 0.00 | 0.00 | 38 | |
| 20260504185035 | 80 | 259 | 2.0 | 4.0 | 0.00 | 0.00 | 0.00 | 36 | |
| 20260504184515 | 80 | 325 | 4.0 | 7.0 | 0.00 | 0.00 | 0.00 | 37 | |
| 20260504184016 | 79 | 284 | 2.0 | 4.0 | 0.00 | 0.00 | 0.00 | 38 | |
| 20260504183539 | 80 | 70 | 3.0 | 5.0 | 0.00 | 0.00 | 0.00 | 36 | |
| 20260504183016 | 79 | 316 | 2.0 | 4.0 | 0.00 | 0.00 | 0.00 | 37 | |
| 20260504182516 | 78 | 78 | 2.0 | 6.0 | 0.00 | 0.00 | 0.00 | 38 | |
| 20260504182036 | 77 | 257 | 3.0 | 6.0 | 0.00 | 0.00 | 0.00 | 38 | |
| 20260504181516 | 77 | 320 | 3.0 | 4.0 | 0.00 | 0.00 | 0.00 | 38 | |
| 20260504181016 | 77 | 323 | 3.0 | 7.0 | 0.00 | 0.00 | 0.00 | 40 | |
| 20260504180517 | 76 | 101 | 1.0 | 3.0 | 0.00 | 0.00 | 0.00 | 40 | |
| 20260504180016 | 76 | 177 | 2.0 | 3.0 | 0.00 | 0.00 | 0.00 | 41 | |
| 20260504175516 | 76 | 197 | 2.0 | 5.0 | 0.00 | 0.00 | 0.00 | 40 | |
| 20260504175016 | 77 | 287 | 5.0 | 7.0 | 0.00 | 0.00 | 0.00 | 40 | |
| 20260504174516 | 77 | 35 | 1.0 | 6.0 | 0.00 | 0.00 | 0.00 | 39 | |
| 20260504174017 | 77 | 318 | 3.0 | 4.0 | 0.00 | 0.00 | 0.00 | 41 | |
| 20260504173516 | 78 | 322 | 4.0 | 7.0 | 0.00 | 0.00 | 0.00 | 40 | |
| 20260504173017 | 78 | 28 | 1.0 | 4.0 | 0.00 | 0.00 | 0.00 | 39 | |
| 20260504172536 | 78 | 316 | 2.0 | 4.0 | 0.00 | 0.00 | 0.00 | 39 | |
| 20260504172017 | 77 | 175 | 1.0 | 2.0 | 0.00 | 0.00 | 0.00 | 41 | |
| 20260504171517 | 76 | 307 | 2.0 | 4.0 | 0.00 | 0.00 | 0.00 | 42 | |
| 20260504171017 | 76 | 276 | 1.0 | 4.0 | 0.00 | 0.00 | 0.00 | 41 | |
| 20260504170537 | 76 | 298 | 3.0 | 4.0 | 0.00 | 0.00 | 0.00 | 40 | |
| 20260504151016 | 69 | 284 | 2.0 | 5.0 | 0.00 | 0.00 | 0.00 | 48 | |
| 20260504150516 | 68 | 251 | 2.0 | 3.0 | 0.00 | 0.00 | 0.00 | 47 | |
| 20260504141017 | 64 | 310 | 1.0 | 3.0 | 0.00 | 0.00 | 0.00 | 57 | |
| 20260504140517 | 64 | 321 | 2.0 | 3.0 | 0.00 | 0.00 | 0.00 | 58 | |
| 20260504130517 | 61 | 168 | 0.0 | 1.0 | 0.00 | 0.00 | 0.00 | 65 | |
| 20260504110517 | 42 | 0.0 | 0.0 | 0.00 | 0.00 | 0.00 | 98 | ||
| 20260504100518 | 42 | 304 | 0.0 | 1.0 | 0.00 | 0.00 | 0.00 | 97 | |
| 20260504081536 | 44 | 0.0 | 0.0 | 0.00 | 0.00 | 0.00 | 94 | ||
| 20260504081036 | 44 | 319 | 0.0 | 1.0 | 0.00 | 0.00 | 0.00 | 93 | |
| 20260504080517 | 44 | 299 | 0.0 | 1.0 | 0.00 | 0.00 | 0.00 | 92 |